This is the latest recevied weather packets stored in our database for station/object VE3VGJ. If no packets are shown the sender has not sent any weather packets the latest 10 day(s).
| Time | Temp. | Humidity | Pressure | Rain* | Wind** | Luminosity | Snow |
|---|---|---|---|---|---|---|---|
| 1777644950 | 7.22° C | 59% | 1013.3 hPa | 0 mm | - | 227 W/m² | - |
| 1777644648 | 7.22° C | 59% | 1013 hPa | 0 mm | - | 211 W/m² | - |
| 1777644343 | 7.22° C | 60% | 1013.1 hPa | 0 mm | - | 175 W/m² | - |
| 1777644039 | 7.22° C | 60% | 1013 hPa | 0 mm | - | 176 W/m² | - |
| 1777643737 | 6.67° C | 61% | 1012.9 hPa | 0 mm | - | 190 W/m² | - |
| 1777643434 | 7.22° C | 60% | 1013.2 hPa | 0 mm | - | 187 W/m² | - |
| 1777643131 | 7.22° C | 60% | 1013.3 hPa | 0 mm | - | 187 W/m² | - |
| 1777642827 | 7.22° C | 60% | 1013.1 hPa | 0 mm | - | 186 W/m² | - |
| 1777642525 | 7.22° C | 61% | 1013.2 hPa | 0 mm | - | 184 W/m² | - |
| 1777642221 | 6.67° C | 60% | 1013.1 hPa | 0 mm | - | 174 W/m² | - |
| 1777641918 | 7.22° C | 61% | 1013.2 hPa | 0 mm | - | 192 W/m² | - |
| 1777641613 | 6.67° C | 61% | 1013 hPa | 0 mm | - | 211 W/m² | - |
| 1777641308 | 6.67° C | 61% | 1013.1 hPa | 0 mm | - | 214 W/m² | - |
| 1777641004 | 6.67° C | 62% | 1013.2 hPa | 0 mm | - | 227 W/m² | - |
| 1777640701 | 6.67° C | 62% | 1013.1 hPa | 0 mm | - | 229 W/m² | - |
| 1777640397 | 6.67° C | 63% | 1013 hPa | 0 mm | - | 223 W/m² | - |
| 1777640094 | 6.67° C | 64% | 1013.1 hPa | 0 mm | - | 245 W/m² | - |
| 1777639791 | 6.11° C | 65% | 1013 hPa | 0 mm | - | 233 W/m² | - |
| 1777639489 | 6.11° C | 66% | 1013 hPa | 0 mm | - | 216 W/m² | - |
| 1777639185 | 6.11° C | 66% | 1013.3 hPa | 0 mm | - | 207 W/m² | - |
| 1777638881 | 6.11° C | 65% | 1013.3 hPa | 0 mm | - | 201 W/m² | - |
| 1777638577 | 5.56° C | 65% | 1013.3 hPa | 0 mm | - | 196 W/m² | - |
| 1777638274 | 5.56° C | 66% | 1013.1 hPa | 0 mm | - | 172 W/m² | - |
| 1777637970 | 5.56° C | 67% | 1013.5 hPa | 0 mm | - | 144 W/m² | - |
| 1777637667 | 5.56° C | 68% | 1013.4 hPa | 0 mm | - | 141 W/m² | - |
* Rain latest hour (hover to see other rain measurements)
** Current wind speed in m/s (hover to see current wind gust speed)